Location: Roanoke
(37.2710°N, 79.9420°W)
Time: 20:58:08
(UTC-05:00)

Courier 1B Rocket - Pass Details

Date: 23 November 2019
Orbit: 920 x 1202 km, 28.2° (Epoch: 07 December)

Event Time Altitude Azimuth Distance (km) Brightness Sun altitude
Rises 12:34:57 0° 222° (SW) 3,599 8.7 31.9°
Reaches altitude 10° 12:38:06 10° 207° (SSW) 2,691 8.6 31.9°
Maximum altitude 12:42:59 22° 158° (SSE) 2,000 7.9 31.7°
Drops below altitude 10° 12:48:06 10° 110° (ESE) 2,839 7.6 31.5°
Sets 12:51:31 0° 96° (E) 3,849 8.1 31.4°
